Location: Habighorst
(52.7089°N, 10.2278°E)
Time: 00:09:03
(UTC+00:00)

SPOT 1/Viking Rocket - Pass Details

Date: 13 January 2026
Orbit: 772 x 789 km, 98.2° (Epoch: 17 February)

Event Time Altitude Azimuth Distance (km) Brightness Sun altitude
Rises 06:42:33 0° 14° (NNE) 3,265 6.6 -6.3°
Reaches altitude 10° 06:44:52 10° 14° (NNE) 2,332 5.9 -6.0°
Maximum altitude 06:50:01 85° 287° (WNW) 784 3.6 -5.3°
Drops below altitude 10° 06:55:08 10° 199° (SSW) 2,315 6.1 -4.7°
Sets 06:57:26 0° 199° (SSW) 3,238 6.9 -4.4°
